Regional Weather Roundup
Issued by NWS

Home | Current Version | Previous Version | Text Only | Print | Product List | Glossary On
Versions: 1 2 3 4 5 6 7 8 9 10 11 12 13 14 15 16 17 18 19 20 21 22 23 24 25 26 27 28 29 30 31 32 33 34 35 36 37 38 39 40 41 42 43 44 45 46 47 48 49 50
000
ASUS45 KBOI 180610
RWRID

IDAHO REGIONAL WEATHER ROUNDUP
NATIONAL WEATHER SERVICE BOISE ID
1100 PM MST WED JAN 17 2018

NOTE: "FAIR" INDICATES FEW OR NO CLOUDS BELOW 12000 FEET
WITH NO SIGNIFICANT WEATHER AND/OR OBSTRUCTIONS TO VISIBILITY

IDZ012-014-180700-
SOUTHWEST IDAHO


CITY           SKY/WX    TMP DP  RH WIND       PRES   REMARKS
BOISE          CLOUDY    39  33  79 SE3       30.15F
CALDWELL       CLOUDY    44  35  70 SE16      30.14F
MOUNTAIN HOME  CLOUDY    40  40  99 SE20      30.17F WCI  31
$$

IDZ016-017-180700-
SOUTHCENTRAL IDAHO


CITY           SKY/WX    TMP DP  RH WIND       PRES   REMARKS
BURLEY         CLOUDY    36  31  82 VRB7      30.22F WCI  30
JEROME         CLOUDY    35  29  78 NE17      30.22F WCI  25
TWIN FALLS     CLOUDY    34  33  96 CALM      30.22F
$$

IDZ019>023-180700-
SOUTHEAST IDAHO


CITY           SKY/WX    TMP DP  RH WIND       PRES   REMARKS
IDAHO FALLS    PTCLDY    29  27  92 N3        30.31F
POCATELLO      MOCLDY    30  28  92 N7        30.29F WCI  23
REXBURG        MOCLDY    27  25  92 NE3       30.30F
$$

IDZ006-010-011-018-031-032-180700-
CENTRAL IDAHO MOUNTAINS


CITY           SKY/WX    TMP DP  RH WIND       PRES   REMARKS
MCCALL         CLOUDY    29  28  96 CALM      30.12F
HAILEY         CLEAR     30  25  80 W5        30.29S WCI  25
STANLEY          N/A     20  17  88 CALM      30.22F
SALMON         CLOUDY    20  18  92 CALM      30.25F
CHALLIS        CLOUDY    23  19  85 CALM      30.24F
$$

IDZ002-004-006-007-026-180700-
NORTHERN IDAHO


CITY           SKY/WX    TMP DP  RH WIND       PRES   REMARKS
LEWISTON       CLOUDY    46  36  68 E8        29.91F
LOWELL           N/A     34  33  96 N3        30.06F
COEUR D`ALENE  LGT RAIN  35  33  92 N15       29.89F WCI  25
MULLAN PASS    CLOUDY    34  30  85 S8G20     29.92F WCI  27
$$



USA.gov is the U.S. government's official web portal to all federal, state and local government web resources and services.